Location: Clarion
(42.7316°N, 93.7330°W)
Time: 09:53:42
(UTC+00:00)

Meteor 2-6 Rocket - Pass Details

Date: 22 April 2026
Orbit: 805 x 913 km, 81.3° (Epoch: 17 May)

Event Time Altitude Azimuth Distance (km) Brightness Sun altitude
Exits shadow 08:37:49 56° 276° (W) 1,038 4.4 -25.9°
Maximum altitude 08:38:00 57° 284° (WNW) 1,036 4.4 -25.8°
Drops below altitude 10° 08:43:47 10° 2° (N) 2,580 7.4 -25.1°
Sets 08:46:21 0° 7° (N) 3,536 8.3 -24.8°
